User: anonymous   Login
Location: Home
(44.6062°N, 75.6910°W)
Time: 10:04:28
(UTC-05:00)
Language:

Apple - Orbit

View from above orbital plane
View from above orbital plane
View from above satellite
View from above satellite

Ground track
Ground track

The orbit data is extracted from the following two-line orbital elements,

1 12545U 81057B   17349.33729913 -.00000295 +00000-0 +00000-0 0  9996
2 12545 013.3658 328.6960 0020903 146.4884 033.6132 01.00037066091313
Epoch (UTC): 15 December 2017 08:05:42
Eccentricity: 0.0020903
inclination: 13.3658°
perigee height: 35764 km
apogee height: 35940 km
right ascension of ascending node: 328.6960°
argument of perigee: 146.4884°
revolutions per day: 1.00037066
mean anomaly at epoch: 33.6132°
orbit number at epoch: 9131

The dashed part of the orbit path shows where the satellite is in the earth's shadow,  

DLR